Location: Anaheim
(33.8350°N, 117.9140°W)
Time: 23:40:42
(UTC-07:00)

ISS - Visible Passes

Search period start: 15 July 2018 00:00
Search period end: 25 July 2018 00:00
Orbit: 402 x 408 km, 51.6° (Epoch: 16 July)

Date Brightness Start Highest point End Pass type
(mag) Time Alt. Az. Time Alt. Az. Time Alt. Az.
15 Jul -0.4 05:21:23 10° N 05:22:35 11° NNE 05:23:46 10° NE visible
17 Jul -1.0 05:12:33 10° NNW 05:15:13 22° NE 05:17:53 10° E visible
18 Jul -0.5 04:21:10 10° N 04:22:56 14° NNE 04:24:41 10° ENE visible
18 Jul -2.7 20:57:50 10° S 21:00:29 23° SE 21:03:09 10° ENE visible
18 Jul -1.6 22:34:04 10° W 22:36:52 26° NW 22:39:42 10° NNE visible
19 Jul -3.0 05:04:24 10° NW 05:07:38 54° NE 05:10:52 10° ESE visible
19 Jul -3.0 21:41:30 10° WSW 21:44:41 50° NW 21:47:53 10° NE visible
20 Jul -1.5 04:12:34 10° NNW 04:15:27 27° NE 04:18:19 10° E visible
20 Jul -3.9 20:49:20 10° SW 20:52:34 71° SE 20:55:50 10° NE visible
20 Jul -0.4 22:27:46 10° WNW 22:29:23 13° NNW 22:31:00 10° N visible
21 Jul -0.7 03:21:00 10° N 03:23:10 16° NNE 03:25:19 10° ENE visible
21 Jul -3.6 04:56:39 10° WNW 04:59:50 48° SW 05:03:00 10° SSE visible
21 Jul -1.0 21:34:28 10° W 21:37:02 21° NW 21:39:38 10° NNE visible
22 Jul -0.2 02:30:18 10° NNE 02:30:46 10° NNE 02:31:14 10° NE visible
22 Jul -3.7 04:04:28 10° NW 04:07:45 74° NE 04:11:00 10° SE visible
22 Jul -2.2 20:41:42 10° WSW 20:44:47 38° NW 20:47:53 10° NNE visible
23 Jul -0.3 21:28:33 10° NW 21:29:32 11° NNW 21:30:29 10° N visible
24 Jul -0.8 20:34:49 10° WNW 20:37:06 17° NNW 20:39:24 10° NNE visible
